This is the latest recevied weather packets stored in our database for station/object KB1FFS. If no packets are shown the sender has not sent any weather packets the latest 10 day(s).
| Time | Temp. | Humidity | Pressure | Rain* | Wind** | Luminosity | Snow |
|---|---|---|---|---|---|---|---|
| 1787589448 | 38.89° C | 29% | 1015.2 hPa | 0 mm | - | 656 W/m² | - |
| 1787589143 | 38.89° C | 28% | 1015.3 hPa | 0 mm | - | 647 W/m² | - |
| 1787588838 | 38.33° C | 31% | 1015.4 hPa | 0 mm | - | 636 W/m² | - |
| 1787588535 | 38.33° C | 30% | 1015.5 hPa | 0 mm | - | 629 W/m² | - |
| 1787588229 | 37.78° C | 31% | 1015.3 hPa | 0 mm | - | 617 W/m² | - |
| 1787587925 | 37.78° C | 32% | 1015.4 hPa | 0 mm | - | 606 W/m² | - |
| 1787587620 | 37.22° C | 32% | 1015.3 hPa | 0 mm | - | 576 W/m² | - |
| 1787587315 | 37.22° C | 32% | 1015.4 hPa | 0 mm | - | 576 W/m² | - |
| 1787587014 | 37.22° C | 31% | 1015.5 hPa | 0 mm | - | 561 W/m² | - |
| 1787586709 | 37.22° C | 33% | 1015.8 hPa | 0 mm | - | 550 W/m² | - |
| 1787586404 | 36.67° C | 33% | 1015.6 hPa | 0 mm | - | 515 W/m² | - |
| 1787586101 | 36.67° C | 33% | 1015.7 hPa | 0 mm | - | 509 W/m² | - |
| 1787585796 | 36.11° C | 33% | 1015.6 hPa | 0 mm | - | 470 W/m² | - |
| 1787585491 | 36.11° C | 34% | 1015.8 hPa | 0 mm | - | 343 W/m² | - |
| 1787585186 | 36.11° C | 34% | 1015.7 hPa | 0 mm | - | 197 W/m² | - |
| 1787584881 | 36.11° C | 34% | 1015.8 hPa | 0 mm | - | 138 W/m² | - |
| 1787584580 | 35.56° C | 34% | 1015.9 hPa | 0 mm | - | 123 W/m² | - |
| 1787584274 | 35.56° C | 34% | 1015.8 hPa | 0 mm | - | 128 W/m² | - |
| 1787583973 | 35.56° C | 35% | 1015.8 hPa | 0 mm | - | 156 W/m² | - |
| 1787583669 | 35° C | 35% | 1015.7 hPa | 0 mm | - | 236 W/m² | - |
| 1787583369 | 35° C | 36% | 1015.6 hPa | 0 mm | - | 324 W/m² | - |
| 1787583068 | 34.44° C | 36% | 1015.3 hPa | 0 mm | - | 324 W/m² | - |
| 1787582762 | 33.89° C | 38% | 1015.2 hPa | 0 mm | - | 310 W/m² | - |
| 1787582458 | 33.89° C | 38% | 1015.5 hPa | 0 mm | - | 295 W/m² | - |
| 1787582153 | 33.33° C | 39% | 1015.5 hPa | 0 mm | - | 271 W/m² | - |
* Rain latest hour (hover to see other rain measurements)
** Current wind speed in m/s (hover to see current wind gust speed)